Regional Weather Roundup
Issued by NWS

Home | Current Version | Previous Version | Graphics & Text | Print | Product List | Glossary On
Versions: 1 2 3 4 5 6 7 8 9 10 11 12 13 14 15 16 17 18 19 20 21 22 23 24 25 26 27 28 29 30 31 32 33 34 35 36 37 38 39 40 41 42 43 44 45 46 47 48 49 50
000
ASUS43 KFSD 300510
RWRSD

WEATHER ROUNDUP FOR SOUTH DAKOTA
NATIONAL WEATHER SERVICE SIOUX FALLS SD
1100 PM CST THU JAN 29 2015

NOTE: "FAIR" INDICATES FEW OR NO CLOUDS BELOW 12,000 FEET WITH NO
SIGNIFICANT WEATHER AND/OR OBSTRUCTIONS TO VISIBILITY.


SDZ001>005-009-010-012>017-300600-
NORTHWEST AND NORTH CENTRAL SOUTH DAKOTA

CITY           SKY/WX    TMP DP  RH WIND       PRES   REMARKS
BUFFALO          N/A     27  13  55 S9        30.23F WCI  18
FAITH            N/A     24  15  68 S14       30.36F WCI  12
MOBRIDGE       CLEAR     21  17  84 SE10      30.42F WCI  10
$$

SDZ012>016-024>037-041>051-057-063-072>074-300600-
SOUTHWEST AND SOUTH CENTRAL SOUTH DAKOTA

CITY           SKY/WX    TMP DP  RH WIND       PRES   REMARKS
RAPID CTY ARPT PTCLDY    27  12  53 SE7       30.32F WCI  19
PIERRE         CLEAR     21  18  88 E9        30.45F WCI  11
CUSTER         PTCLDY    28  16  60 SW6       30.29F WCI  22
ELLSWORTH AFB  CLEAR     31   9  40 S9        30.31F WCI  23
PHILIP         CLEAR     20  15  81 E7        30.40F WCI  11
PINE RIDGE     CLEAR     26  14  60 W5        30.36F WCI  20
WINNER         FAIR      25  19  78 SE9       30.46F WCI  15
$$

SDZ004>011-016>023-039-040-300600-
NORTHEAST SOUTH DAKOTA

CITY           SKY/WX    TMP DP  RH WIND       PRES   REMARKS
ABERDEEN       PTCLDY    19  14  81 E7        30.53F WCI  10
WATERTOWN      CLOUDY    19  13  77 CALM      30.50F
SISSETON         N/A     16  10  77 VRB3      30.56S
$$

SDZ017-020-022-023-036>040-048>070-300600-
SOUTHEAST SOUTH DAKOTA

CITY           SKY/WX    TMP DP  RH WIND       PRES   REMARKS
SIOUX FALLS    MOCLDY    23  17  78 NE5       30.53S WCI  17
HURON          CLEAR     19  16  88 SE3       30.53S
CHAMBERLAIN    CLEAR     20  18  91 E6        30.50F WCI  12
MITCHELL       CLEAR     21  17  84 SE5       30.55R WCI  15
YANKTON        CLEAR     23  18  80 N3        30.56R
$$

ABBREVIATIONS USED IN REMARKS
   TC - TEMPERATURE IN CELSIUS
  WCI - WIND CHILL INDEX
   HX - HEAT INDEX
  VSB - VISIBILITY




USA.gov is the U.S. government's official web portal to all federal, state and local government web resources and services.